| time (UTC) | temp C | wind direction | speed KPH | gust KPH | rain 1hr cm | rain 24hr cm | rain mn cm | humidity % | barometer mb |
| 20260505093006 | 15 | 194 | 0.0 | 0.0 | 0.00 | 0.03 | 0.03 | 82 | 1000.7 |
| 20260505091503 | 13 | 165 | 0.0 | 0.0 | 0.00 | 0.03 | 0.03 | 89 | 1000.8 |
| 20260505090001 | 13 | 203 | 0.0 | 0.0 | 0.00 | 0.03 | 0.03 | 91 | 1001.0 |
| 20260505084559 | 13 | 178 | 0.0 | 0.0 | 0.00 | 0.03 | 0.03 | 92 | 1001.2 |
| 20260505083102 | 13 | 159 | 0.0 | 0.0 | 0.00 | 0.03 | 0.03 | 91 | 1001.3 |
| 20260505081556 | 13 | 159 | 0.0 | 0.0 | 0.00 | 0.03 | 0.03 | 90 | 1001.4 |
| 20260505080054 | 14 | 157 | 0.0 | 0.0 | 0.03 | 0.03 | 0.03 | 88 | 1001.6 |
| 20260505074548 | 15 | 184 | 0.0 | 0.0 | 0.03 | 0.03 | 0.03 | 86 | 1001.8 |
| 20260505073046 | 15 | 207 | 0.0 | 0.0 | 0.03 | 0.03 | 0.03 | 85 | 1002.0 |
| 20260505071541 | 16 | 178 | 0.0 | 3.2 | 0.03 | 0.03 | 0.03 | 81 | 1001.8 |
| 20260505070042 | 17 | 198 | 0.0 | 11.3 | 0.00 | 0.00 | 0.00 | 71 | 1002.0 |
| 20260505064535 | 17 | 206 | 0.0 | 4.8 | 0.00 | 0.00 | 0.00 | 67 | 1002.1 |
| 20260505063039 | 17 | 219 | 0.0 | 6.4 | 0.00 | 0.00 | 0.00 | 67 | 1001.9 |
| 20260505061539 | 17 | 267 | 0.0 | 0.0 | 0.00 | 0.00 | 0.00 | 67 | 1001.8 |
| 20260505060034 | 17 | 184 | 0.0 | 12.9 | 0.00 | 0.00 | 0.00 | 66 | 1001.8 |
| 20260505054538 | 17 | 179 | 0.0 | 0.0 | 0.00 | 0.00 | 0.00 | 66 | 1001.8 |
| 20260505053039 | 17 | 193 | 0.0 | 1.6 | 0.00 | 0.00 | 0.00 | 65 | 1001.9 |
| 20260505051531 | 17 | 210 | 0.0 | 4.8 | 0.00 | 0.00 | 0.00 | 64 | 1002.0 |
| 20260505041523 | 17 | 88 | 0.0 | 1.6 | 0.00 | 0.00 | 0.00 | 59 | 1002.4 |
| 20260505040020 | 17 | 176 | 0.0 | 0.0 | 0.00 | 0.00 | 0.00 | 58 | 1002.2 |
| 20260505034519 | 17 | 195 | 0.0 | 0.0 | 0.00 | 0.00 | 0.00 | 57 | 1002.4 |
| 20260505033021 | 17 | 197 | 0.0 | 9.7 | 0.00 | 0.00 | 0.00 | 53 | 1002.5 |
| 20260505031518 | 14 | 195 | 0.0 | 0.0 | 0.00 | 0.00 | 0.00 | 62 | 1002.5 |
| 20260505030025 | 13 | 170 | 0.0 | 0.0 | 0.00 | 0.00 | 0.00 | 66 | 1002.2 |
| 20260505024517 | 13 | 170 | 0.0 | 0.0 | 0.00 | 0.00 | 0.00 | 65 | 1002.2 |
| 20260505023016 | 14 | 170 | 0.0 | 0.0 | 0.00 | 0.00 | 0.00 | 60 | 1002.1 |
| 20260505021515 | 15 | 170 | 0.0 | 0.0 | 0.00 | 0.00 | 0.00 | 59 | 1002.4 |
| 20260505020014 | 15 | 169 | 0.0 | 0.0 | 0.00 | 0.00 | 0.00 | 56 | 1002.4 |
| 20260505014515 | 15 | 169 | 0.0 | 0.0 | 0.00 | 0.00 | 0.00 | 55 | 1002.6 |
| 20260505013013 | 16 | 169 | 0.0 | 0.0 | 0.00 | 0.00 | 0.00 | 53 | 1002.5 |
| 20260505011518 | 16 | 169 | 0.0 | 0.0 | 0.00 | 0.00 | 0.00 | 51 | 1002.4 |
| 20260505010012 | 17 | 169 | 0.0 | 0.0 | 0.00 | 0.00 | 0.00 | 48 | 1002.2 |
| 20260505004523 | 18 | 169 | 0.0 | 0.0 | 0.00 | 0.00 | 0.00 | 46 | 1002.2 |
| 20260505003011 | 19 | 169 | 0.0 | 0.0 | 0.00 | 0.00 | 0.00 | 44 | 1002.2 |
| 20260505001511 | 20 | 169 | 0.0 | 0.0 | 0.00 | 0.00 | 0.00 | 39 | 1002.2 |
| 20260505000017 | 21 | 165 | 0.0 | 0.0 | 0.00 | 0.00 | 0.00 | 37 | 1002.2 |
| 20260504234517 | 21 | 170 | 0.0 | 0.0 | 0.00 | 0.00 | 0.00 | 35 | 1002.1 |
| 20260504233009 | 22 | 222 | 0.0 | 0.0 | 0.00 | 0.00 | 0.00 | 34 | 1002.0 |
| 20260504231526 | 22 | 228 | 0.0 | 8.0 | 0.00 | 0.00 | 0.00 | 32 | 1001.9 |
| 20260504230011 | 22 | 175 | 0.0 | 1.6 | 0.00 | 0.00 | 0.00 | 32 | 1002.0 |
| 20260504224507 | 23 | 176 | 0.0 | 11.3 | 0.00 | 0.00 | 0.00 | 32 | 1001.8 |
| 20260504223007 | 23 | 191 | 0.0 | 11.3 | 0.00 | 0.00 | 0.00 | 30 | 1001.8 |
| 20260504221505 | 23 | 143 | 0.0 | 3.2 | 0.00 | 0.00 | 0.00 | 31 | 1001.9 |
| 20260504220005 | 23 | 218 | 0.0 | 9.7 | 0.00 | 0.00 | 0.00 | 30 | 1001.9 |
| 20260504214504 | 23 | 212 | 0.0 | 9.7 | 0.00 | 0.00 | 0.00 | 31 | 1002.0 |
| 20260504213006 | 23 | 172 | 1.6 | 14.5 | 0.00 | 0.00 | 0.00 | 31 | 1002.2 |
| 20260504211500 | 23 | 227 | 0.0 | 4.8 | 0.00 | 0.00 | 0.00 | 30 | 1002.2 |
| 20260504210105 | 23 | 1 | 0.0 | 6.4 | 0.00 | 0.00 | 0.00 | 31 | 1002.3 |
| 20260504204637 | 23 | 191 | 0.0 | 12.9 | 0.00 | 0.00 | 0.00 | 32 | 1002.5 |
| 20260504203056 | 23 | 214 | 0.0 | 17.7 | 0.00 | 0.00 | 0.00 | 33 | 1002.7 |
| 20260504201555 | 23 | 253 | 0.0 | 3.2 | 0.00 | 0.00 | 0.00 | 33 | 1002.7 |
| 20260504200056 | 23 | 150 | 1.6 | 12.9 | 0.00 | 0.00 | 0.00 | 32 | 1002.9 |
| 20260504194555 | 23 | 190 | 1.6 | 12.9 | 0.00 | 0.00 | 0.00 | 33 | 1003.2 |
| 20260504193050 | 23 | 290 | 1.6 | 22.5 | 0.00 | 0.00 | 0.00 | 32 | 1003.4 |
| 20260504191547 | 23 | 190 | 0.0 | 12.9 | 0.00 | 0.00 | 0.00 | 35 | 1003.5 |
| 20260504190055 | 23 | 222 | 0.0 | 12.9 | 0.00 | 0.00 | 0.00 | 32 | 1003.8 |
| 20260504184559 | 23 | 220 | 0.0 | 11.3 | 0.00 | 0.00 | 0.00 | 34 | 1004.1 |
| 20260504183046 | 23 | 247 | 0.0 | 3.2 | 0.00 | 0.00 | 0.00 | 35 | 1004.1 |
| 20260504181538 | 22 | 337 | 0.0 | 4.8 | 0.00 | 0.00 | 0.00 | 37 | 1004.2 |
| 20260504180037 | 22 | 179 | 0.0 | 12.9 | 0.00 | 0.00 | 0.00 | 38 | 1004.4 |
| 20260504174538 | 22 | 148 | 3.2 | 14.5 | 0.00 | 0.00 | 0.00 | 38 | 1004.3 |
| 20260504173034 | 22 | 226 | 0.0 | 4.8 | 0.00 | 0.00 | 0.00 | 40 | 1004.6 |
| 20260504171540 | 22 | 143 | 1.6 | 14.5 | 0.00 | 0.00 | 0.00 | 41 | 1004.7 |